Flag for Poland Weather past 2 weeks in Rybnik, Poland

Now
39 °F

Broken clouds.


Feels Like: 30 °F
Forecast: 36 / 51 °F
Wind: 16 mph from Northwest

Location: Katowice Airport

Current Time: Apr 18, 2015 at 10:52:16 AM

Latest Report: Apr 18, 2015 at 10:30 AM


Visibility: N/A

Pressure: 30.07 "Hg

Humidity: 65%

Dew point: 28 °F

Location of RybnikLocation

Historic Weather in Rybnik — Graph

°F

Rybnik temperature yesterday

Maximum temperature yesterday: 54 °F (at 12:00 PM)
Minimum temperature yesterday: 39 °F (at 7:00 AM)
Average temperature yesterday: 49 °F

Past Weeks' High & Low Weather Summary

 TemperatureHumidityPressure
High68 °F (Apr 11, 2:30 PM)100% (Apr 3, 9:30 AM)30.48 "Hg (Apr 3, 9:30 AM)
Low28 °F (Apr 4, 3:00 AM)18% (Apr 9, 3:00 PM)29.83 "Hg (Apr 16, 2:30 AM)
Average45 °F67%30.13 "Hg
* Reported Apr 3 9:00 AM — Apr 18 9:30 AM, Rybnik, Weather by CustomWeather, © 2015

Note: Actual official high and low records may vary slightly from our data, if they occured in-between our weather recording intervals... More about our weather records

Advertising

Rybnik weather history for previous 24 hours

 ConditionsComfort  
Time TempWeatherWind HumidityBarometerVisibility
9:30 AM
Sat, Apr 18
37 °FBroken clouds.14 mph75%30.07 "HgN/A
9:00 AM37 °FBroken clouds.10 mph75%30.04 "HgN/A
8:30 AM36 °FPartly sunny.14 mph81%30.04 "HgN/A
8:00 AM36 °FPartly sunny.13 mph87%30.04 "HgN/A
7:30 AM34 °FPartly sunny.10 mph93%30.04 "HgN/A
7:00 AM34 °FPartly sunny.8 mph87%30.04 "HgN/A
6:30 AM32 °FPassing clouds.6 mph93%30.01 "HgN/A
6:00 AM32 °FClear.7 mph93%30.01 "Hg10 mi
5:30 AM34 °FClear.7 mph87%29.98 "Hg10 mi
5:00 AM34 °FClear.8 mph93%29.98 "Hg10 mi
4:30 AM34 °FClear.6 mph93%29.98 "Hg10 mi
4:00 AM36 °FClear.6 mph87%29.98 "Hg10 mi
3:30 AM36 °FClear.6 mph87%29.98 "Hg10 mi
3:00 AM37 °FClear.7 mph81%29.95 "Hg10 mi
2:30 AM37 °FClear.2 mph75%29.95 "Hg10 mi
2:00 AM37 °FClear.5 mph75%29.95 "Hg10 mi
1:30 AM39 °FClear.2 mph70%29.95 "Hg10 mi
1:00 AM39 °FClear.5 mph70%29.95 "Hg10 mi
12:30 AM41 °FClear.8 mph66%29.92 "Hg10 mi
12:00 AM41 °FClear.12 mph66%29.92 "Hg10 mi
11:30 PM
Fri, Apr 17
45 °FClear.10 mph53%29.92 "Hg10 mi
11:00 PM45 °FClear.6 mph57%29.89 "Hg10 mi
10:30 PM45 °FClear.7 mph57%29.89 "Hg10 mi
10:00 PM45 °FClear.3 mph57%29.89 "Hg10 mi
9:30 PM46 °FClear.5 mph50%29.89 "Hg10 mi
9:00 PM46 °FClear.7 mph50%29.89 "Hg10 mi
8:30 PM46 °FSunny.10 mph50%29.86 "Hg10 mi
8:00 PM48 °FSunny.10 mph46%29.86 "Hg10 mi
7:30 PM50 °FSunny.13 mph43%29.86 "Hg10 mi
7:00 PM50 °FSunny.13 mph40%29.83 "Hg10 mi
6:30 PM52 °FSunny.12 mph41%29.83 "Hg10 mi
6:00 PM54 °FPassing clouds.10 mph33%29.83 "HgN/A
5:30 PM54 °FSunny.12 mph41%29.83 "Hg10 mi
5:00 PM54 °FSunny.12 mph33%29.83 "Hg10 mi
4:30 PM54 °FPassing clouds.12 mph41%29.83 "HgN/A
4:00 PM54 °FPassing clouds.8 mph41%29.83 "HgN/A
3:30 PM54 °FPassing clouds.10 mph44%29.83 "HgN/A
3:00 PM54 °FPassing clouds.9 mph47%29.83 "HgN/A
2:30 PM54 °FPassing clouds.12 mph44%29.86 "HgN/A
2:00 PM54 °FPassing clouds.9 mph41%29.86 "HgN/A
1:30 PM54 °FPassing clouds.10 mph41%29.86 "HgN/A
1:00 PM54 °FScattered clouds.13 mph47%29.86 "HgN/A
12:30 PM54 °FPassing clouds.12 mph44%29.86 "HgN/A
12:00 PM54 °FPassing clouds.13 mph47%29.86 "HgN/A
11:30 AM52 °FPassing clouds.12 mph47%29.86 "HgN/A
11:00 AM52 °FPassing clouds.14 mph50%29.86 "HgN/A
10:30 AM52 °FPassing clouds.13 mph47%29.86 "HgN/A
10:00 AM52 °FPassing clouds.7 mph44%29.86 "HgN/A
Weather by CustomWeather, © 2015

See weather overviewHow to use our weather pages